Year,Month,Day,Hour,Minute,Value (Times are PST for temperature in C)
2011,07,24,00,00,16.00
2011,07,24,00,01,16.00
2011,07,24,00,02,16.00
2011,07,24,00,03,15.90
2011,07,24,00,04,15.90
2011,07,24,00,05,15.90
2011,07,24,00,06,15.90
2011,07,24,00,07,15.90
2011,07,24,00,08,15.90
2011,07,24,00,09,15.90
2011,07,24,00,10,15.90
2011,07,24,00,11,15.90
2011,07,24,00,12,15.90
2011,07,24,00,13,15.90
2011,07,24,00,14,15.90
2011,07,24,00,15,15.90
2011,07,24,00,16,15.90
2011,07,24,00,17,15.90
2011,07,24,00,18,15.90
2011,07,24,00,19,15.90
2011,07,24,00,20,15.90
2011,07,24,00,21,15.90
2011,07,24,00,22,15.90
2011,07,24,00,23,15.90
2011,07,24,00,24,15.90
2011,07,24,00,25,15.90
2011,07,24,00,26,15.90
2011,07,24,00,27,15.90
2011,07,24,00,28,15.90
2011,07,24,00,29,15.90
2011,07,24,00,30,15.90
2011,07,24,00,31,15.90
2011,07,24,00,32,15.90
2011,07,24,00,33,15.90
2011,07,24,00,34,15.90
2011,07,24,00,35,15.90
2011,07,24,00,36,15.90
2011,07,24,00,37,15.90
2011,07,24,00,38,15.90
2011,07,24,00,39,15.90
2011,07,24,00,40,15.90
2011,07,24,00,41,15.90
2011,07,24,00,42,15.90
2011,07,24,00,43,15.90
2011,07,24,00,44,15.90
2011,07,24,00,45,15.90
2011,07,24,00,46,15.90
2011,07,24,00,47,15.90
2011,07,24,00,48,15.90
2011,07,24,00,49,15.90
2011,07,24,00,50,15.90
2011,07,24,00,51,15.90
2011,07,24,00,52,15.90
2011,07,24,00,53,15.90
2011,07,24,00,54,15.90
2011,07,24,00,55,16.00
2011,07,24,00,56,16.00
2011,07,24,00,57,16.00
2011,07,24,00,58,16.00
2011,07,24,00,59,16.00
2011,07,24,01,00,15.90
2011,07,24,01,01,15.90
2011,07,24,01,02,15.90
2011,07,24,01,03,15.90
2011,07,24,01,04,15.90
2011,07,24,01,05,15.90
2011,07,24,01,06,15.90
2011,07,24,01,07,15.90
2011,07,24,01,08,15.90
2011,07,24,01,09,16.00
2011,07,24,01,10,16.00
2011,07,24,01,11,16.00
2011,07,24,01,12,16.00
2011,07,24,01,13,16.10
2011,07,24,01,14,16.10
2011,07,24,01,15,16.10
2011,07,24,01,16,16.10
2011,07,24,01,17,16.20
2011,07,24,01,18,16.20
2011,07,24,01,19,16.20
2011,07,24,01,20,16.20
2011,07,24,01,21,16.20
2011,07,24,01,22,16.20
2011,07,24,01,23,16.20
2011,07,24,01,24,16.20
2011,07,24,01,25,16.20
2011,07,24,01,26,16.20
2011,07,24,01,27,16.20
2011,07,24,01,28,16.20
2011,07,24,01,29,16.20
2011,07,24,01,30,16.20
2011,07,24,01,31,16.20
2011,07,24,01,32,16.10
2011,07,24,01,33,16.10
2011,07,24,01,34,16.10
2011,07,24,01,35,16.10
2011,07,24,01,36,16.10
2011,07,24,01,37,16.10
2011,07,24,01,38,16.10
2011,07,24,01,39,16.10
2011,07,24,01,40,16.10
2011,07,24,01,41,16.10
2011,07,24,01,42,16.10
2011,07,24,01,43,16.10
2011,07,24,01,44,16.10
2011,07,24,01,45,16.10
2011,07,24,01,46,16.00
2011,07,24,01,47,16.00
2011,07,24,01,48,16.00
2011,07,24,01,49,16.10
2011,07,24,01,50,16.00
2011,07,24,01,51,16.10
2011,07,24,01,52,16.10
2011,07,24,01,53,16.10
2011,07,24,01,54,16.10
2011,07,24,01,55,16.10
2011,07,24,01,56,16.10
2011,07,24,01,57,16.20
2011,07,24,01,58,16.20
2011,07,24,01,59,16.20
2011,07,24,02,00,16.20
2011,07,24,02,01,16.20
2011,07,24,02,02,16.20
2011,07,24,02,03,16.20
2011,07,24,02,04,16.20
2011,07,24,02,05,16.20
2011,07,24,02,06,16.20
2011,07,24,02,07,16.20
2011,07,24,02,08,16.20
2011,07,24,02,09,16.20
2011,07,24,02,10,16.20
2011,07,24,02,11,16.20
2011,07,24,02,12,16.30
2011,07,24,02,13,16.30
2011,07,24,02,14,16.30
2011,07,24,02,15,16.30
2011,07,24,02,16,16.30
2011,07,24,02,17,16.30
2011,07,24,02,18,16.30
2011,07,24,02,19,16.30
2011,07,24,02,20,16.30
2011,07,24,02,21,16.30
2011,07,24,02,22,16.30
2011,07,24,02,23,16.30
2011,07,24,02,24,16.30
2011,07,24,02,25,16.30
2011,07,24,02,26,16.30
2011,07,24,02,27,16.30
2011,07,24,02,28,16.30
2011,07,24,02,29,16.30
2011,07,24,02,30,16.30
2011,07,24,02,31,16.20
2011,07,24,02,32,16.20
2011,07,24,02,33,16.20
2011,07,24,02,34,16.20
2011,07,24,02,35,16.20
2011,07,24,02,36,16.20
2011,07,24,02,37,16.20
2011,07,24,02,38,16.10
2011,07,24,02,39,16.10
2011,07,24,02,40,16.10
2011,07,24,02,41,16.10
2011,07,24,02,42,16.10
2011,07,24,02,43,16.10
2011,07,24,02,44,16.10
2011,07,24,02,45,16.10
2011,07,24,02,46,16.10
2011,07,24,02,47,16.10
2011,07,24,02,48,16.10
2011,07,24,02,49,16.10
2011,07,24,02,50,16.10
2011,07,24,02,51,16.10
2011,07,24,02,52,16.10
2011,07,24,02,53,16.10
2011,07,24,02,54,16.10
2011,07,24,02,55,16.10
2011,07,24,02,56,16.10
2011,07,24,02,57,16.10
2011,07,24,02,58,16.10
2011,07,24,02,59,16.20
2011,07,24,03,00,16.20
2011,07,24,03,01,16.20
2011,07,24,03,02,16.20
2011,07,24,03,03,16.20
2011,07,24,03,04,16.10
2011,07,24,03,05,16.10
2011,07,24,03,06,16.10
2011,07,24,03,07,16.00
2011,07,24,03,08,16.00
2011,07,24,03,09,16.00
2011,07,24,03,10,15.90
2011,07,24,03,11,15.90
2011,07,24,03,12,15.90
2011,07,24,03,13,15.90
2011,07,24,03,14,15.90
2011,07,24,03,15,15.90
2011,07,24,03,16,15.90
2011,07,24,03,17,15.90
2011,07,24,03,18,15.90
2011,07,24,03,19,15.90
2011,07,24,03,20,15.90
2011,07,24,03,21,15.90
2011,07,24,03,22,15.90
2011,07,24,03,23,15.90
2011,07,24,03,24,15.90
2011,07,24,03,25,16.00
2011,07,24,03,26,15.90
2011,07,24,03,27,16.00
2011,07,24,03,28,16.00
2011,07,24,03,29,16.00
2011,07,24,03,30,16.00
2011,07,24,03,31,16.00
2011,07,24,03,32,16.00
2011,07,24,03,33,16.00
2011,07,24,03,34,16.00
2011,07,24,03,35,16.00
2011,07,24,03,36,16.00
2011,07,24,03,37,16.00
2011,07,24,03,38,16.00
2011,07,24,03,39,16.00
2011,07,24,03,40,16.00
2011,07,24,03,41,16.00
2011,07,24,03,42,16.00
2011,07,24,03,43,16.00
2011,07,24,03,44,15.90
2011,07,24,03,45,15.90
2011,07,24,03,46,15.90
2011,07,24,03,47,15.90
2011,07,24,03,48,15.90
2011,07,24,03,49,15.90
2011,07,24,03,50,15.90
2011,07,24,03,51,15.90
2011,07,24,03,52,15.90
2011,07,24,03,53,15.90
2011,07,24,03,54,15.90
2011,07,24,03,55,15.80
2011,07,24,03,56,15.80
2011,07,24,03,57,15.80
2011,07,24,03,58,15.80
2011,07,24,03,59,15.80
2011,07,24,04,00,15.80
2011,07,24,04,01,15.80
2011,07,24,04,02,15.80
2011,07,24,04,03,15.80
2011,07,24,04,04,15.80
2011,07,24,04,05,15.80
2011,07,24,04,06,15.70
2011,07,24,04,07,15.70
2011,07,24,04,08,15.70
2011,07,24,04,09,15.70
2011,07,24,04,10,15.70
2011,07,24,04,11,15.70
2011,07,24,04,12,15.60
2011,07,24,04,13,15.60
2011,07,24,04,14,15.60
2011,07,24,04,15,15.60
2011,07,24,04,16,15.60
2011,07,24,04,17,15.60
2011,07,24,04,18,15.60
2011,07,24,04,19,15.60
2011,07,24,04,20,15.60
2011,07,24,04,21,15.70
2011,07,24,04,22,15.70
2011,07,24,04,23,15.60
2011,07,24,04,24,15.60
2011,07,24,04,25,15.60
2011,07,24,04,26,15.60
2011,07,24,04,27,15.60
2011,07,24,04,28,15.60
2011,07,24,04,29,15.60
2011,07,24,04,30,15.60
2011,07,24,04,31,15.60
2011,07,24,04,32,15.70
2011,07,24,04,33,15.70
2011,07,24,04,34,15.60
2011,07,24,04,35,15.60
2011,07,24,04,36,15.60
2011,07,24,04,37,15.60
2011,07,24,04,38,15.60
2011,07,24,04,39,15.60
2011,07,24,04,40,15.60
2011,07,24,04,41,15.60
2011,07,24,04,42,15.60
2011,07,24,04,43,15.60
2011,07,24,04,44,15.60
2011,07,24,04,45,15.60
2011,07,24,04,46,15.60
2011,07,24,04,47,15.60
2011,07,24,04,48,15.60
2011,07,24,04,49,15.60
2011,07,24,04,50,15.60
2011,07,24,04,51,15.60
2011,07,24,04,52,15.60
2011,07,24,04,53,15.50
2011,07,24,04,54,15.50
2011,07,24,04,55,15.50
2011,07,24,04,56,15.50
2011,07,24,04,57,15.60
2011,07,24,04,58,15.60
2011,07,24,04,59,15.60
2011,07,24,05,00,15.60
2011,07,24,05,01,15.60
2011,07,24,05,02,15.60
2011,07,24,05,03,15.60
2011,07,24,05,04,15.60
2011,07,24,05,05,15.60
2011,07,24,05,06,15.60
2011,07,24,05,07,15.60
2011,07,24,05,08,15.60
2011,07,24,05,09,15.60
2011,07,24,05,10,15.60
2011,07,24,05,11,15.60
2011,07,24,05,12,15.60
2011,07,24,05,13,15.60
2011,07,24,05,14,15.60
2011,07,24,05,15,15.60
2011,07,24,05,16,15.60
2011,07,24,05,17,15.60
2011,07,24,05,18,15.60
2011,07,24,05,19,15.60
2011,07,24,05,20,15.60
2011,07,24,05,21,15.60
2011,07,24,05,22,15.60
2011,07,24,05,23,15.60
2011,07,24,05,24,15.60
2011,07,24,05,25,15.60
2011,07,24,05,26,15.60
2011,07,24,05,27,15.60
2011,07,24,05,28,15.60
2011,07,24,05,29,15.50
2011,07,24,05,30,15.50
2011,07,24,05,31,15.50
2011,07,24,05,32,15.50
2011,07,24,05,33,15.40
2011,07,24,05,34,15.40
2011,07,24,05,35,15.40
2011,07,24,05,36,15.40
2011,07,24,05,37,15.40
2011,07,24,05,38,15.40
2011,07,24,05,39,15.40
2011,07,24,05,40,15.40
2011,07,24,05,41,15.30
2011,07,24,05,42,15.30
2011,07,24,05,43,15.30
2011,07,24,05,44,15.30
2011,07,24,05,45,15.30
2011,07,24,05,46,15.30
2011,07,24,05,47,15.30
2011,07,24,05,48,15.30
2011,07,24,05,49,15.30
2011,07,24,05,50,15.30
2011,07,24,05,51,15.30
2011,07,24,05,52,15.30
2011,07,24,05,53,15.30
2011,07,24,05,54,15.30
2011,07,24,05,55,15.30
2011,07,24,05,56,15.30
2011,07,24,05,57,15.30
2011,07,24,05,58,15.20
2011,07,24,05,59,15.20
2011,07,24,06,00,15.20
2011,07,24,06,01,15.20
2011,07,24,06,02,15.20
2011,07,24,06,03,15.20
2011,07,24,06,04,15.20
2011,07,24,06,05,15.20
2011,07,24,06,06,15.20
2011,07,24,06,07,15.20
2011,07,24,06,08,15.20
2011,07,24,06,09,15.30
2011,07,24,06,10,15.30
2011,07,24,06,11,15.30
2011,07,24,06,12,15.30
2011,07,24,06,13,15.30
2011,07,24,06,14,15.30
2011,07,24,06,15,15.30
2011,07,24,06,16,15.30
2011,07,24,06,17,15.30
2011,07,24,06,18,15.30
2011,07,24,06,19,15.30
2011,07,24,06,20,15.30
2011,07,24,06,21,15.30
2011,07,24,06,22,15.30
2011,07,24,06,23,15.30
2011,07,24,06,24,15.30
2011,07,24,06,25,15.30
2011,07,24,06,26,15.30
2011,07,24,06,27,15.40
2011,07,24,06,28,15.40
2011,07,24,06,29,15.40
2011,07,24,06,30,15.40
2011,07,24,06,31,15.40
2011,07,24,06,32,15.50
2011,07,24,06,33,15.50
2011,07,24,06,34,15.50
2011,07,24,06,35,15.50
2011,07,24,06,36,15.60
2011,07,24,06,37,15.60
2011,07,24,06,38,15.60
2011,07,24,06,39,15.60
2011,07,24,06,40,15.70
2011,07,24,06,41,15.70
2011,07,24,06,42,15.70
2011,07,24,06,43,15.80
2011,07,24,06,44,15.80
2011,07,24,06,45,15.80
2011,07,24,06,46,15.80
2011,07,24,06,47,15.80
2011,07,24,06,48,15.90
2011,07,24,06,49,15.90
2011,07,24,06,50,15.90
2011,07,24,06,51,16.00
2011,07,24,06,52,16.00
2011,07,24,06,53,16.00
2011,07,24,06,54,16.10
2011,07,24,06,55,16.10
2011,07,24,06,56,16.10
2011,07,24,06,57,16.20
2011,07,24,06,58,16.20
2011,07,24,06,59,16.20
2011,07,24,07,00,16.20
2011,07,24,07,01,16.30
2011,07,24,07,02,16.30
2011,07,24,07,03,16.30
2011,07,24,07,04,16.30
2011,07,24,07,05,16.30
2011,07,24,07,06,16.40
2011,07,24,07,07,16.40
2011,07,24,07,08,16.40
2011,07,24,07,09,16.40
2011,07,24,07,10,16.40
2011,07,24,07,11,16.50
2011,07,24,07,12,16.50
2011,07,24,07,13,16.50
2011,07,24,07,14,16.50
2011,07,24,07,15,16.60
2011,07,24,07,16,16.60
2011,07,24,07,17,16.60
2011,07,24,07,18,16.70
2011,07,24,07,19,16.70
2011,07,24,07,20,16.80
2011,07,24,07,21,16.80
2011,07,24,07,22,16.80
2011,07,24,07,23,16.90
2011,07,24,07,24,16.90
2011,07,24,07,25,16.90
2011,07,24,07,26,17.00
2011,07,24,07,27,17.00
2011,07,24,07,28,17.00
2011,07,24,07,29,17.10
2011,07,24,07,30,17.10
2011,07,24,07,31,17.10
2011,07,24,07,32,17.20
2011,07,24,07,33,17.20
2011,07,24,07,34,17.20
2011,07,24,07,35,17.20
2011,07,24,07,36,17.30
2011,07,24,07,37,17.30
2011,07,24,07,38,17.30
2011,07,24,07,39,17.30
2011,07,24,07,40,17.30
2011,07,24,07,41,17.30
2011,07,24,07,42,17.30
2011,07,24,07,43,17.30
2011,07,24,07,44,17.30
2011,07,24,07,45,17.40
2011,07,24,07,46,17.40
2011,07,24,07,47,17.40
2011,07,24,07,48,17.50
2011,07,24,07,49,17.50
2011,07,24,07,50,17.60
2011,07,24,07,51,17.60
2011,07,24,07,52,17.70
2011,07,24,07,53,17.70
2011,07,24,07,54,17.70
2011,07,24,07,55,17.70
2011,07,24,07,56,17.80
2011,07,24,07,57,17.80
2011,07,24,07,58,17.80
2011,07,24,07,59,17.80
2011,07,24,08,00,17.80
2011,07,24,08,01,17.90
2011,07,24,08,02,17.90
2011,07,24,08,03,17.90
2011,07,24,08,04,17.90
2011,07,24,08,05,18.00
2011,07,24,08,06,18.00
2011,07,24,08,07,18.10
2011,07,24,08,08,18.10
2011,07,24,08,09,18.20
2011,07,24,08,10,18.20
2011,07,24,08,11,18.30
2011,07,24,08,12,18.30
2011,07,24,08,13,18.40
2011,07,24,08,14,18.40
2011,07,24,08,15,18.50
2011,07,24,08,16,18.60
2011,07,24,08,17,18.70
2011,07,24,08,18,18.70
2011,07,24,08,19,18.80
2011,07,24,08,20,18.80
2011,07,24,08,21,18.90
2011,07,24,08,22,18.90
2011,07,24,08,23,19.00
2011,07,24,08,24,19.10
2011,07,24,08,25,19.10
2011,07,24,08,26,19.20
2011,07,24,08,27,19.20
2011,07,24,08,28,19.30
2011,07,24,08,29,19.30
2011,07,24,08,30,19.30
2011,07,24,08,31,19.40
2011,07,24,08,32,19.40
2011,07,24,08,33,19.40
2011,07,24,08,34,19.40
2011,07,24,08,35,19.40
2011,07,24,08,36,19.40
2011,07,24,08,37,19.40
2011,07,24,08,38,19.40
2011,07,24,08,39,19.40
2011,07,24,08,40,19.40
2011,07,24,08,41,19.40
2011,07,24,08,42,19.30
2011,07,24,08,43,19.30
2011,07,24,08,44,19.40
2011,07,24,08,45,19.40
2011,07,24,08,46,19.50
2011,07,24,08,47,19.50
2011,07,24,08,48,19.50
2011,07,24,08,49,19.50
2011,07,24,08,50,19.50
2011,07,24,08,51,19.40
2011,07,24,08,52,19.40
2011,07,24,08,53,19.30
2011,07,24,08,54,19.30
2011,07,24,08,55,19.30
2011,07,24,08,56,19.30
2011,07,24,08,57,19.30
2011,07,24,08,58,19.30
2011,07,24,08,59,19.30
2011,07,24,09,00,19.30
2011,07,24,09,01,19.30
2011,07,24,09,02,19.30
2011,07,24,09,03,19.40
2011,07,24,09,04,19.40
2011,07,24,09,05,19.40
2011,07,24,09,06,19.40
2011,07,24,09,07,19.40
2011,07,24,09,08,19.40
2011,07,24,09,09,19.50
2011,07,24,09,10,19.50
2011,07,24,09,11,19.50
2011,07,24,09,12,19.60
2011,07,24,09,13,19.60
2011,07,24,09,14,19.60
2011,07,24,09,15,19.60
2011,07,24,09,16,19.70
2011,07,24,09,17,19.70
2011,07,24,09,18,19.70
2011,07,24,09,19,19.80
2011,07,24,09,20,19.80
2011,07,24,09,21,19.80
2011,07,24,09,22,19.80
2011,07,24,09,23,19.80
2011,07,24,09,24,19.90
2011,07,24,09,25,19.90
2011,07,24,09,26,19.90
2011,07,24,09,27,19.90
2011,07,24,09,28,20.00
2011,07,24,09,29,20.00
2011,07,24,09,30,20.00
2011,07,24,09,31,20.10
2011,07,24,09,32,20.20
2011,07,24,09,33,20.20
2011,07,24,09,34,20.30
2011,07,24,09,35,20.30
2011,07,24,09,36,20.40
2011,07,24,09,37,20.50
2011,07,24,09,38,20.60
2011,07,24,09,39,20.70
2011,07,24,09,40,20.70
2011,07,24,09,41,20.70
2011,07,24,09,42,20.70
2011,07,24,09,43,20.70
2011,07,24,09,44,20.80
2011,07,24,09,45,20.80
2011,07,24,09,46,20.80
2011,07,24,09,47,20.80
2011,07,24,09,48,20.80
2011,07,24,09,49,20.80
2011,07,24,09,50,20.80
2011,07,24,09,51,20.80
2011,07,24,09,52,20.80
2011,07,24,09,53,20.70
2011,07,24,09,54,20.70
2011,07,24,09,55,20.60
2011,07,24,09,56,20.60
2011,07,24,09,57,20.60
2011,07,24,09,58,20.60
2011,07,24,09,59,20.50
2011,07,24,10,00,20.50
2011,07,24,10,01,20.60
2011,07,24,10,02,20.70
2011,07,24,10,03,20.70
2011,07,24,10,04,20.70
2011,07,24,10,05,20.70
2011,07,24,10,06,20.80
2011,07,24,10,07,20.80
2011,07,24,10,08,20.90
2011,07,24,10,09,20.90
2011,07,24,10,10,21.00
2011,07,24,10,11,21.00
2011,07,24,10,12,21.10
2011,07,24,10,13,21.10
2011,07,24,10,14,21.10
2011,07,24,10,15,21.10
2011,07,24,10,16,21.10
2011,07,24,10,17,21.10
2011,07,24,10,18,21.20
2011,07,24,10,19,21.20
2011,07,24,10,20,21.30
2011,07,24,10,21,21.30
2011,07,24,10,22,21.30
2011,07,24,10,23,21.40
2011,07,24,10,24,21.40
2011,07,24,10,25,21.30
2011,07,24,10,26,21.10
2011,07,24,10,27,21.00
2011,07,24,10,28,20.90
2011,07,24,10,29,20.90
2011,07,24,10,30,20.90
2011,07,24,10,31,20.90
2011,07,24,10,32,20.90
2011,07,24,10,33,20.90
2011,07,24,10,34,21.00
2011,07,24,10,35,21.00
2011,07,24,10,36,21.00
2011,07,24,10,37,21.10
2011,07,24,10,38,21.20
2011,07,24,10,39,21.30
2011,07,24,10,40,21.40
2011,07,24,10,41,21.50
2011,07,24,10,42,21.60
2011,07,24,10,43,21.70
2011,07,24,10,44,21.70
2011,07,24,10,45,21.80
2011,07,24,10,46,21.80
2011,07,24,10,47,21.80
2011,07,24,10,48,21.80
2011,07,24,10,49,21.80
2011,07,24,10,50,21.80
2011,07,24,10,51,21.80
2011,07,24,10,52,21.80
2011,07,24,10,53,21.80
2011,07,24,10,54,21.80
2011,07,24,10,55,21.80
2011,07,24,10,56,21.80
2011,07,24,10,57,21.80
2011,07,24,10,58,21.70
2011,07,24,10,59,21.70
2011,07,24,11,00,21.70
2011,07,24,11,01,21.70
2011,07,24,11,02,21.70
2011,07,24,11,03,21.70
2011,07,24,11,04,21.70
2011,07,24,11,05,21.70
2011,07,24,11,06,21.80
2011,07,24,11,07,21.70
2011,07,24,11,08,21.70
2011,07,24,11,09,21.70
2011,07,24,11,10,21.80
2011,07,24,11,11,21.80
2011,07,24,11,12,21.90
2011,07,24,11,13,22.10
2011,07,24,11,14,22.20
2011,07,24,11,15,22.40
2011,07,24,11,16,22.50
2011,07,24,11,17,22.60
2011,07,24,11,18,22.80
2011,07,24,11,19,22.80
2011,07,24,11,20,22.90
2011,07,24,11,21,23.00
2011,07,24,11,22,23.00
2011,07,24,11,23,22.90
2011,07,24,11,24,22.90
2011,07,24,11,25,22.80
2011,07,24,11,26,22.80
2011,07,24,11,27,22.90
2011,07,24,11,28,23.00
2011,07,24,11,29,23.00
2011,07,24,11,30,23.00
2011,07,24,11,31,23.00
2011,07,24,11,32,23.00
2011,07,24,11,33,23.10
2011,07,24,11,34,23.20
2011,07,24,11,35,23.20
2011,07,24,11,36,23.30
2011,07,24,11,37,23.30
2011,07,24,11,38,23.20
2011,07,24,11,39,23.20
2011,07,24,11,40,23.20
2011,07,24,11,41,23.20
2011,07,24,11,42,23.20
2011,07,24,11,43,23.20
2011,07,24,11,44,23.20
2011,07,24,11,45,23.30
2011,07,24,11,46,23.40
2011,07,24,11,47,23.50
2011,07,24,11,48,23.60
2011,07,24,11,49,23.60
2011,07,24,11,50,23.60
2011,07,24,11,51,23.60
2011,07,24,11,52,23.70
2011,07,24,11,53,23.70
2011,07,24,11,54,23.70
2011,07,24,11,55,23.70
2011,07,24,11,56,23.70
2011,07,24,11,57,23.70
2011,07,24,11,58,23.60
2011,07,24,11,59,23.40
2011,07,24,12,00,23.20
2011,07,24,12,01,23.10
2011,07,24,12,02,23.00
2011,07,24,12,03,23.00
2011,07,24,12,04,23.00
2011,07,24,12,05,23.10
2011,07,24,12,06,23.20
2011,07,24,12,07,23.30
2011,07,24,12,08,23.30
2011,07,24,12,09,23.40
2011,07,24,12,10,23.40
2011,07,24,12,11,23.30
2011,07,24,12,12,23.20
2011,07,24,12,13,23.20
2011,07,24,12,14,23.20
2011,07,24,12,15,23.20
2011,07,24,12,16,23.30
2011,07,24,12,17,23.40
2011,07,24,12,18,23.60
2011,07,24,12,19,23.70
2011,07,24,12,20,23.80
2011,07,24,12,21,23.90
2011,07,24,12,22,23.90
2011,07,24,12,23,23.90
2011,07,24,12,24,23.90
2011,07,24,12,25,23.90
2011,07,24,12,26,23.90
2011,07,24,12,27,23.90
2011,07,24,12,28,23.80
2011,07,24,12,29,23.90
2011,07,24,12,30,23.80
2011,07,24,12,31,23.80
2011,07,24,12,32,23.90
2011,07,24,12,33,23.90
2011,07,24,12,34,23.90
2011,07,24,12,35,23.90
2011,07,24,12,36,23.90
2011,07,24,12,37,24.00
2011,07,24,12,38,23.90
2011,07,24,12,39,23.90
2011,07,24,12,40,23.90
2011,07,24,12,41,23.80
2011,07,24,12,42,23.80
2011,07,24,12,43,23.80
2011,07,24,12,44,23.80
2011,07,24,12,45,23.80
2011,07,24,12,46,23.80
2011,07,24,12,47,23.80
2011,07,24,12,48,23.90
2011,07,24,12,49,24.00
2011,07,24,12,50,24.00
2011,07,24,12,51,24.10
2011,07,24,12,52,24.10
2011,07,24,12,53,24.10
2011,07,24,12,54,24.10
2011,07,24,12,55,24.10
2011,07,24,12,56,24.10
2011,07,24,12,57,24.10
2011,07,24,12,58,24.00
2011,07,24,12,59,23.90
2011,07,24,13,00,23.90
2011,07,24,13,01,23.90
2011,07,24,13,02,23.90
2011,07,24,13,03,24.00
2011,07,24,13,04,24.00
2011,07,24,13,05,24.10
2011,07,24,13,06,24.10
2011,07,24,13,07,24.10
2011,07,24,13,08,24.10
2011,07,24,13,09,24.00
2011,07,24,13,10,24.00
2011,07,24,13,11,23.90
2011,07,24,13,12,23.80
2011,07,24,13,13,23.80
2011,07,24,13,14,23.80
2011,07,24,13,15,23.80
2011,07,24,13,16,23.80
2011,07,24,13,17,23.80
2011,07,24,13,18,23.80
2011,07,24,13,19,23.80
2011,07,24,13,20,23.80
2011,07,24,13,21,23.80
2011,07,24,13,22,23.70
2011,07,24,13,23,23.70
2011,07,24,13,24,23.70
2011,07,24,13,25,23.60
2011,07,24,13,26,23.60
2011,07,24,13,27,23.50
2011,07,24,13,28,23.40
2011,07,24,13,29,23.30
2011,07,24,13,30,23.20
2011,07,24,13,31,23.20
2011,07,24,13,32,23.10
2011,07,24,13,33,23.00
2011,07,24,13,34,22.90
2011,07,24,13,35,22.80
2011,07,24,13,36,22.80
2011,07,24,13,37,22.70
2011,07,24,13,38,22.70
2011,07,24,13,39,22.70
2011,07,24,13,40,22.70
2011,07,24,13,41,22.70
2011,07,24,13,42,22.70
2011,07,24,13,43,22.70
2011,07,24,13,44,22.60
2011,07,24,13,45,22.60
2011,07,24,13,46,22.60
2011,07,24,13,47,22.60
2011,07,24,13,48,22.60
2011,07,24,13,49,22.60
2011,07,24,13,50,22.60
2011,07,24,13,51,22.60
2011,07,24,13,52,22.70
2011,07,24,13,53,22.70
2011,07,24,13,54,22.80
2011,07,24,13,55,22.80
2011,07,24,13,56,22.80
2011,07,24,13,57,22.80
2011,07,24,13,58,22.80
2011,07,24,13,59,22.70
2011,07,24,14,00,22.70
2011,07,24,14,01,22.70
2011,07,24,14,02,22.70
2011,07,24,14,03,22.70
2011,07,24,14,04,22.80
2011,07,24,14,05,22.80
2011,07,24,14,06,22.80
2011,07,24,14,07,22.80
2011,07,24,14,08,22.80
2011,07,24,14,09,22.80
2011,07,24,14,10,22.80
2011,07,24,14,11,22.70
2011,07,24,14,12,22.70
2011,07,24,14,13,22.70
2011,07,24,14,14,22.70
2011,07,24,14,15,22.70
2011,07,24,14,16,22.60
2011,07,24,14,17,22.50
2011,07,24,14,18,22.40
2011,07,24,14,19,22.30
2011,07,24,14,20,22.20
2011,07,24,14,21,22.20
2011,07,24,14,22,22.10
2011,07,24,14,23,22.10
2011,07,24,14,24,22.00
2011,07,24,14,25,22.00
2011,07,24,14,26,22.00
2011,07,24,14,27,22.00
2011,07,24,14,28,22.00
2011,07,24,14,29,22.00
2011,07,24,14,30,22.10
2011,07,24,14,31,22.10
2011,07,24,14,32,22.20
2011,07,24,14,33,22.30
2011,07,24,14,34,22.30
2011,07,24,14,35,22.30
2011,07,24,14,36,22.30
2011,07,24,14,37,22.20
2011,07,24,14,38,22.20
2011,07,24,14,39,22.10
2011,07,24,14,40,22.00
2011,07,24,14,41,21.80
2011,07,24,14,42,21.80
2011,07,24,14,43,21.80
2011,07,24,14,44,21.80
2011,07,24,14,45,21.80
2011,07,24,14,46,21.80
2011,07,24,14,47,21.80
2011,07,24,14,48,21.90
2011,07,24,14,49,22.00
2011,07,24,14,50,22.10
2011,07,24,14,51,22.20
2011,07,24,14,52,22.40
2011,07,24,14,53,22.50
2011,07,24,14,54,22.70
2011,07,24,14,55,22.80
2011,07,24,14,56,22.80
2011,07,24,14,57,22.80
2011,07,24,14,58,22.90
2011,07,24,14,59,22.90
2011,07,24,15,00,22.90
2011,07,24,15,01,22.90
2011,07,24,15,02,22.90
2011,07,24,15,03,22.90
2011,07,24,15,04,22.90
2011,07,24,15,05,22.90
2011,07,24,15,06,23.00
2011,07,24,15,07,23.00
2011,07,24,15,08,23.10
2011,07,24,15,09,23.10
2011,07,24,15,10,23.10
2011,07,24,15,11,23.20
2011,07,24,15,12,23.20
2011,07,24,15,13,23.10
2011,07,24,15,14,23.20
2011,07,24,15,15,23.20
2011,07,24,15,16,23.10
2011,07,24,15,17,23.20
2011,07,24,15,18,23.20
2011,07,24,15,19,23.20
2011,07,24,15,20,23.20
2011,07,24,15,21,23.30
2011,07,24,15,22,23.30
2011,07,24,15,23,23.40
2011,07,24,15,24,23.40
2011,07,24,15,25,23.30
2011,07,24,15,26,23.40
2011,07,24,15,27,23.40
2011,07,24,15,28,23.40
2011,07,24,15,29,23.40
2011,07,24,15,30,23.40
2011,07,24,15,31,23.40
2011,07,24,15,32,23.40
2011,07,24,15,33,23.30
2011,07,24,15,34,23.30
2011,07,24,15,35,23.30
2011,07,24,15,36,23.20
2011,07,24,15,37,23.20
2011,07,24,15,38,23.30
2011,07,24,15,39,23.30
2011,07,24,15,40,23.20
2011,07,24,15,41,23.30
2011,07,24,15,42,23.30
2011,07,24,15,43,23.30
2011,07,24,15,44,23.30
2011,07,24,15,45,23.30
2011,07,24,15,46,23.30
2011,07,24,15,47,23.30
2011,07,24,15,48,23.40
2011,07,24,15,49,23.40
2011,07,24,15,50,23.40
2011,07,24,15,51,23.50
2011,07,24,15,52,23.50
2011,07,24,15,53,23.60
2011,07,24,15,54,23.60
2011,07,24,15,55,23.60
2011,07,24,15,56,23.60
2011,07,24,15,57,23.70
2011,07,24,15,58,23.80
2011,07,24,15,59,23.80
2011,07,24,16,00,23.90
2011,07,24,16,01,23.90
2011,07,24,16,02,23.90
2011,07,24,16,03,24.00
2011,07,24,16,04,24.00
2011,07,24,16,05,24.00
2011,07,24,16,06,23.90
2011,07,24,16,07,23.90
2011,07,24,16,08,23.80
2011,07,24,16,09,23.80
2011,07,24,16,10,23.80
2011,07,24,16,11,23.70
2011,07,24,16,12,23.60
2011,07,24,16,13,23.60
2011,07,24,16,14,23.50
2011,07,24,16,15,23.40
2011,07,24,16,16,23.40
2011,07,24,16,17,23.50
2011,07,24,16,18,23.70
2011,07,24,16,19,23.90
2011,07,24,16,20,24.00
2011,07,24,16,21,24.10
2011,07,24,16,22,24.10
2011,07,24,16,23,24.20
2011,07,24,16,24,24.10
2011,07,24,16,25,24.10
2011,07,24,16,26,24.10
2011,07,24,16,27,24.10
2011,07,24,16,28,24.20
2011,07,24,16,29,24.20
2011,07,24,16,30,24.20
2011,07,24,16,31,24.10
2011,07,24,16,32,24.10
2011,07,24,16,33,24.00
2011,07,24,16,34,24.00
2011,07,24,16,35,24.00
2011,07,24,16,36,24.00
2011,07,24,16,37,24.00
2011,07,24,16,38,24.00
2011,07,24,16,39,24.00
2011,07,24,16,40,24.00
2011,07,24,16,41,24.00
2011,07,24,16,42,23.90
2011,07,24,16,43,23.90
2011,07,24,16,44,23.80
2011,07,24,16,45,23.70
2011,07,24,16,46,23.70
2011,07,24,16,47,23.60
2011,07,24,16,48,23.50
2011,07,24,16,49,23.40
2011,07,24,16,50,23.40
2011,07,24,16,51,23.30
2011,07,24,16,52,23.20
2011,07,24,16,53,23.10
2011,07,24,16,54,23.00
2011,07,24,16,55,22.90
2011,07,24,16,56,22.80
2011,07,24,16,57,22.80
2011,07,24,16,58,22.70
2011,07,24,16,59,22.60
2011,07,24,17,00,22.60
2011,07,24,17,01,22.60
2011,07,24,17,02,22.60
2011,07,24,17,03,22.60
2011,07,24,17,04,22.60
2011,07,24,17,05,22.60
2011,07,24,17,06,22.60
2011,07,24,17,07,22.60
2011,07,24,17,08,22.60
2011,07,24,17,09,22.60
2011,07,24,17,10,22.60
2011,07,24,17,11,22.60
2011,07,24,17,12,22.60
2011,07,24,17,13,22.70
2011,07,24,17,14,22.70
2011,07,24,17,15,22.80
2011,07,24,17,16,22.90
2011,07,24,17,17,23.00
2011,07,24,17,18,23.00
2011,07,24,17,19,23.10